SWR252 LSZH-LEIB

Flight info

Callsign SWR252
Flight time N/A
Altitude 33000
Route VEBIT T50 ROTOS Z669 ULMES DCT VADAR/N0470F410 DCT GEVEA DCT INCUS DCT BALSI DCT RETNO DCT TUPOX DCT MTG DCT DIVKO DCT VATIR DCT PIVUS DCT SULID DCT DIMIB DCT POS
Aircraft A343/H-SDE2E3FGHIJ4J5M1RWXY/LB1D1

Departure

Time N/A
Airport Zürich Airport (LSZH)

Arrival

Time 2026-05-06 12:51
Airport Ibiza Airport (LEIB)
Time Latitude Longitude Altitude Speed Heading
2026-05-06 11:40 43.19921 4.91079 40944 ft 429 kts 216°
2026-05-06 11:40 43.17458 4.88764 40945 ft 430 kts 216°
2026-05-06 11:41 43.12522 4.84141 40932 ft 430 kts 216°
2026-05-06 11:41 43.07588 4.79535 40949 ft 428 kts 216°
2026-05-06 11:42 43.02487 4.75316 40948 ft 429 kts 212°
2026-05-06 11:42 42.97279 4.71331 40953 ft 429 kts 211°
2026-05-06 11:43 42.92055 4.67392 40946 ft 429 kts 211°
2026-05-06 11:43 42.86835 4.63460 40967 ft 428 kts 211°
2026-05-06 11:44 42.79060 4.57600 40946 ft 428 kts 211°
2026-05-06 11:44 42.73843 4.53674 40958 ft 429 kts 211°
2026-05-06 11:45 42.68619 4.49751 40958 ft 429 kts 211°
2026-05-06 11:45 42.63383 4.45827 40961 ft 429 kts 211°
2026-05-06 11:46 42.58148 4.41912 40962 ft 429 kts 211°
2026-05-06 11:46 42.52917 4.38007 40943 ft 429 kts 211°
2026-05-06 11:47 42.47692 4.34115 40964 ft 428 kts 211°
2026-05-06 11:47 42.42480 4.30239 40967 ft 427 kts 211°
2026-05-06 11:48 42.37268 4.26370 40970 ft 427 kts 211°
2026-05-06 11:48 42.32055 4.22508 40955 ft 427 kts 211°
2026-05-06 11:49 42.26842 4.18655 40967 ft 426 kts 211°
2026-05-06 11:49 42.21633 4.14810 40966 ft 427 kts 211°
2026-05-06 11:50 42.16449 4.10991 40968 ft 428 kts 211°
2026-05-06 11:50 42.11225 4.07145 40961 ft 428 kts 211°
2026-05-06 11:51 42.05998 4.03314 40966 ft 427 kts 211°
2026-05-06 11:51 42.00778 3.99495 40967 ft 427 kts 211°
2026-05-06 11:52 41.95559 3.95680 40968 ft 427 kts 211°
2026-05-06 11:52 41.90337 3.91889 40958 ft 427 kts 210°
2026-05-06 11:53 41.85068 3.88330 40969 ft 426 kts 209°
2026-05-06 11:53 41.79744 3.84822 40968 ft 426 kts 209°
2026-05-06 11:54 41.74435 3.81297 40973 ft 426 kts 209°
2026-05-06 11:54 41.69125 3.77748 40967 ft 427 kts 209°
2026-05-06 11:55 41.63809 3.74193 40962 ft 427 kts 209°
2026-05-06 11:55 41.58524 3.70667 40968 ft 427 kts 209°
2026-05-06 11:56 41.53211 3.67129 40965 ft 427 kts 209°
2026-05-06 11:56 41.47895 3.63597 40961 ft 427 kts 209°
2026-05-06 11:57 41.42588 3.60077 40966 ft 426 kts 209°
2026-05-06 11:57 41.37283 3.56565 40966 ft 426 kts 209°
2026-05-06 11:58 41.31970 3.53053 40966 ft 426 kts 209°
2026-05-06 11:58 41.26665 3.49554 40963 ft 426 kts 209°
2026-05-06 11:59 41.21357 3.46062 40965 ft 425 kts 209°
2026-05-06 11:59 41.15775 3.43487 40967 ft 431 kts 198°
2026-05-06 12:00 41.09899 3.41795 40969 ft 432 kts 195°
2026-05-06 12:00 41.03996 3.40273 40968 ft 432 kts 195°
2026-05-06 12:01 40.98102 3.38759 40966 ft 432 kts 195°
2026-05-06 12:01 40.92208 3.37222 40966 ft 432 kts 195°
2026-05-06 12:02 40.86314 3.35674 40963 ft 432 kts 195°
2026-05-06 12:02 40.80428 3.34130 40966 ft 431 kts 195°
2026-05-06 12:03 40.74546 3.32591 40963 ft 431 kts 195°
2026-05-06 12:03 40.68663 3.31054 40963 ft 431 kts 195°
2026-05-06 12:04 40.62782 3.29521 40966 ft 431 kts 195°
2026-05-06 12:04 40.56933 3.27999 40966 ft 431 kts 195°
2026-05-06 12:05 40.51048 3.26471 40966 ft 431 kts 195°
2026-05-06 12:05 40.45165 3.24946 40966 ft 431 kts 195°
2026-05-06 12:06 40.39285 3.23424 40960 ft 431 kts 196°
2026-05-06 12:06 40.33403 3.21905 40963 ft 430 kts 196°
2026-05-06 12:07 40.27529 3.20388 40963 ft 430 kts 196°
2026-05-06 12:07 40.21656 3.18874 40963 ft 430 kts 196°
2026-05-06 12:08 40.15780 3.17362 40962 ft 430 kts 196°
2026-05-06 12:08 40.10899 3.16108 40955 ft 430 kts 196°
2026-05-06 12:09 40.05023 3.14601 40960 ft 430 kts 196°
2026-05-06 12:09 39.99146 3.13097 40967 ft 430 kts 196°
2026-05-06 12:10 39.93268 3.11594 40960 ft 430 kts 196°
2026-05-06 12:10 39.87391 3.10087 40959 ft 430 kts 196°
2026-05-06 12:11 39.81513 3.08577 40957 ft 430 kts 196°
2026-05-06 12:11 39.75637 3.07069 40937 ft 430 kts 196°
2026-05-06 12:12 39.69753 3.05572 40958 ft 431 kts 196°
2026-05-06 12:12 39.63899 3.04081 40958 ft 431 kts 196°
2026-05-06 12:13 39.58006 3.02581 40952 ft 431 kts 196°
2026-05-06 12:13 39.52114 3.01078 40946 ft 431 kts 196°
2026-05-06 12:14 39.46213 2.99587 40950 ft 432 kts 196°
2026-05-06 12:14 39.40309 2.98100 40950 ft 432 kts 196°
2026-05-06 12:15 39.34408 2.96616 40952 ft 432 kts 196°
2026-05-06 12:15 39.28504 2.95139 40944 ft 432 kts 196°
2026-05-06 12:16 39.22601 2.93682 40945 ft 432 kts 196°
2026-05-06 12:16 39.16692 2.92229 40954 ft 432 kts 196°
2026-05-06 12:17 39.10790 2.90778 40960 ft 432 kts 196°
2026-05-06 12:17 39.04883 2.89335 40946 ft 432 kts 196°
2026-05-06 12:18 38.98978 2.87904 40946 ft 432 kts 196°
2026-05-06 12:18 38.93206 2.86019 40951 ft 422 kts 211°
2026-05-06 12:19 38.90833 2.83902 40763 ft 410 kts 226°
2026-05-06 12:19 38.89100 2.81101 40004 ft 396 kts 242°
2026-05-06 12:19 38.88019 2.77884 39021 ft 391 kts 249°
2026-05-06 12:19 38.87159 2.74592 37861 ft 388 kts 253°
2026-05-06 12:20 38.86579 2.71225 36445 ft 388 kts 259°
2026-05-06 12:20 38.86388 2.67807 34952 ft 392 kts 268°
2026-05-06 12:20 38.86511 2.64285 33309 ft 397 kts 270°
2026-05-06 12:20 38.86714 2.60743 31492 ft 400 kts 271°
2026-05-06 12:21 38.86933 2.57174 29811 ft 400 kts 271°
2026-05-06 12:21 38.87153 2.53639 28082 ft 395 kts 271°
2026-05-06 12:21 38.87369 2.50141 26483 ft 389 kts 271°
2026-05-06 12:21 38.87580 2.46702 24750 ft 387 kts 271°
2026-05-06 12:22 38.87788 2.43272 23297 ft 381 kts 271°
2026-05-06 12:22 38.87991 2.39929 21771 ft 372 kts 271°
2026-05-06 12:22 38.88188 2.36650 20275 ft 365 kts 271°
2026-05-06 12:22 38.88380 2.33436 18861 ft 359 kts 272°
2026-05-06 12:23 38.88568 2.30268 17380 ft 353 kts 272°
2026-05-06 12:23 38.88752 2.27150 15924 ft 347 kts 272°
2026-05-06 12:23 38.88932 2.24094 14589 ft 340 kts 272°
2026-05-06 12:23 38.89108 2.21097 13245 ft 335 kts 272°
2026-05-06 12:24 38.89281 2.18129 12478 ft 335 kts 273°
2026-05-06 12:24 38.89453 2.15149 12029 ft 334 kts 273°
2026-05-06 12:24 38.89624 2.12187 11602 ft 332 kts 273°
2026-05-06 12:24 38.89794 2.09233 11184 ft 330 kts 273°
2026-05-06 12:25 38.89961 2.06339 10912 ft 319 kts 274°
2026-05-06 12:25 38.90084 2.03558 10708 ft 305 kts 269°
2026-05-06 12:25 38.89619 2.00978 10565 ft 293 kts 244°
2026-05-06 12:25 38.88395 1.98956 10415 ft 285 kts 222°
2026-05-06 12:26 38.86932 1.97277 10388 ft 282 kts 225°
2026-05-06 12:26 38.85412 1.95676 10381 ft 285 kts 211°
2026-05-06 12:26 38.83514 1.94951 10385 ft 289 kts 185°
2026-05-06 12:26 38.81529 1.95356 10385 ft 293 kts 160°
2026-05-06 12:27 38.79844 1.96829 10385 ft 294 kts 134°
2026-05-06 12:27 38.78831 1.99002 10316 ft 286 kts 108°
2026-05-06 12:27 38.78655 2.01483 10200 ft 279 kts 81°
2026-05-06 12:27 38.79350 2.03764 10092 ft 275 kts 53°
2026-05-06 12:28 38.80751 2.05372 9976 ft 269 kts 26°
2026-05-06 12:28 38.82501 2.05948 9867 ft 256 kts 357°
2026-05-06 12:28 38.84183 2.05402 9741 ft 249 kts 329°
2026-05-06 12:28 38.85664 2.04263 9612 ft 249 kts 328°
2026-05-06 12:29 38.87168 2.03154 9473 ft 249 kts 328°
2026-05-06 12:29 38.88534 2.01830 9348 ft 243 kts 313°
2026-05-06 12:29 38.89406 2.00051 9224 ft 233 kts 289°
2026-05-06 12:29 38.89834 1.98080 9093 ft 226 kts 280°
2026-05-06 12:30 38.90018 1.96066 8997 ft 234 kts 272°
2026-05-06 12:30 38.89959 1.93931 8916 ft 243 kts 263°
2026-05-06 12:30 38.89638 1.91809 8847 ft 240 kts 255°
2026-05-06 12:30 38.89067 1.89785 8656 ft 241 kts 246°
2026-05-06 12:31 38.88262 1.87915 8444 ft 241 kts 237°
2026-05-06 12:31 38.87233 1.86216 8206 ft 241 kts 229°
2026-05-06 12:31 38.86289 1.84479 8191 ft 241 kts 245°
2026-05-06 12:31 38.85812 1.82395 8113 ft 250 kts 260°
2026-05-06 12:32 38.85572 1.80168 8052 ft 252 kts 263°
2026-05-06 12:32 38.85380 1.77928 7859 ft 254 kts 264°
2026-05-06 12:32 38.85195 1.75672 7618 ft 255 kts 264°
2026-05-06 12:32 38.85010 1.73422 7382 ft 253 kts 264°
2026-05-06 12:33 38.84826 1.71174 7131 ft 254 kts 264°
2026-05-06 12:33 38.84640 1.68920 6891 ft 254 kts 264°
2026-05-06 12:33 38.84453 1.66661 6645 ft 255 kts 264°
2026-05-06 12:33 38.84265 1.64398 6409 ft 255 kts 264°
2026-05-06 12:34 38.84077 1.62141 6155 ft 255 kts 263°
2026-05-06 12:34 38.83858 1.59883 5908 ft 254 kts 259°
2026-05-06 12:34 38.83456 1.57681 5669 ft 254 kts 255°
2026-05-06 12:34 38.82982 1.55504 5421 ft 254 kts 253°
2026-05-06 12:35 38.82495 1.53322 5182 ft 254 kts 253°
2026-05-06 12:35 38.82013 1.51157 4979 ft 251 kts 253°
2026-05-06 12:35 38.81530 1.48990 4877 ft 254 kts 253°
2026-05-06 12:35 38.81051 1.46834 4766 ft 250 kts 253°
2026-05-06 12:36 38.80572 1.44680 4694 ft 252 kts 253°
2026-05-06 12:36 38.79991 1.42616 4604 ft 241 kts 245°
2026-05-06 12:36 38.79253 1.40719 4483 ft 237 kts 242°
2026-05-06 12:36 38.78472 1.38832 4358 ft 242 kts 242°
2026-05-06 12:37 38.77701 1.36979 4249 ft 237 kts 242°
2026-05-06 12:37 38.76916 1.35089 4168 ft 242 kts 241°
2026-05-06 12:37 38.76129 1.33193 4097 ft 237 kts 242°
2026-05-06 12:37 38.75373 1.31368 4008 ft 227 kts 242°
2026-05-06 12:38 38.74654 1.29633 3996 ft 214 kts 242°
2026-05-06 12:38 38.73979 1.28003 3991 ft 201 kts 242°
2026-05-06 12:38 38.73330 1.26432 3960 ft 199 kts 241°
2026-05-06 12:38 38.72684 1.24885 3880 ft 193 kts 241°
2026-05-06 12:39 38.72061 1.23395 3800 ft 186 kts 241°
2026-05-06 12:39 38.71461 1.21957 3674 ft 181 kts 241°
2026-05-06 12:39 38.70875 1.20555 3564 ft 178 kts 241°
2026-05-06 12:39 38.70286 1.19148 3455 ft 181 kts 242°
2026-05-06 12:40 38.69701 1.17748 3372 ft 177 kts 241°
2026-05-06 12:40 38.69115 1.16344 3259 ft 180 kts 241°
2026-05-06 12:40 38.68526 1.14936 3170 ft 177 kts 241°
2026-05-06 12:40 38.67943 1.13543 3075 ft 177 kts 240°
2026-05-06 12:41 38.67368 1.12163 3002 ft 176 kts 241°
2026-05-06 12:41 38.66787 1.10771 2993 ft 180 kts 239°
2026-05-06 12:41 38.66193 1.09357 2999 ft 181 kts 240°
2026-05-06 12:41 38.65603 1.07948 2993 ft 179 kts 240°
2026-05-06 12:42 38.65262 1.06425 2990 ft 179 kts 269°
2026-05-06 12:42 38.65643 1.04953 2992 ft 175 kts 316°
2026-05-06 12:42 38.66610 1.04078 3015 ft 170 kts 334°
2026-05-06 12:42 38.67652 1.03356 3003 ft 171 kts 335°
2026-05-06 12:43 38.68697 1.02667 3003 ft 171 kts 337°
2026-05-06 12:43 38.69813 1.02175 3004 ft 169 kts 353°
2026-05-06 12:43 38.70966 1.02118 2996 ft 165 kts 11°
2026-05-06 12:43 38.72071 1.02537 3001 ft 169 kts 32°
2026-05-06 12:44 38.72976 1.03537 3005 ft 176 kts 51°
2026-05-06 12:44 38.73720 1.04785 2998 ft 177 kts 58°
2026-05-06 12:44 38.74348 1.06120 2998 ft 177 kts 62°
2026-05-06 12:44 38.74933 1.07504 2991 ft 175 kts 63°
2026-05-06 12:45 38.75504 1.08887 2995 ft 177 kts 64°
2026-05-06 12:45 38.76083 1.10285 2997 ft 178 kts 63°
2026-05-06 12:45 38.77248 1.13075 2994 ft 177 kts 64°
2026-05-06 12:46 38.77826 1.14462 2994 ft 177 kts 63°
2026-05-06 12:46 38.78407 1.15862 2995 ft 180 kts 62°
2026-05-06 12:46 38.78992 1.17272 2994 ft 179 kts 62°
2026-05-06 12:46 38.79574 1.18678 2959 ft 178 kts 62°
2026-05-06 12:47 38.80154 1.20085 2781 ft 179 kts 62°
2026-05-06 12:47 38.80741 1.21501 2523 ft 181 kts 62°
2026-05-06 12:47 38.81319 1.22897 2312 ft 174 kts 61°
2026-05-06 12:47 38.81875 1.24239 2053 ft 167 kts 62°
2026-05-06 12:48 38.82407 1.25527 1824 ft 160 kts 61°
2026-05-06 12:48 38.82910 1.26740 1623 ft 147 kts 62°
2026-05-06 12:48 38.83370 1.27855 1423 ft 137 kts 60°
2026-05-06 12:48 38.83800 1.28892 1251 ft 125 kts 61°
2026-05-06 12:49 38.84194 1.29844 1077 ft 119 kts 63°
2026-05-06 12:49 38.84582 1.30783 924 ft 120 kts 61°
2026-05-06 12:49 38.84975 1.31733 772 ft 121 kts 63°
2026-05-06 12:49 38.85353 1.32648 626 ft 110 kts 64°
2026-05-06 12:50 38.85709 1.33509 467 ft 110 kts 64°
2026-05-06 12:50 38.86061 1.34360 322 ft 106 kts 65°
2026-05-06 12:50 38.86401 1.35183 203 ft 105 kts 68°
2026-05-06 12:50 38.86748 1.36023 53 ft 108 kts 65°
2026-05-06 12:51 38.87066 1.36791 13 ft 77 kts 62°
2026-05-06 12:51 38.87247 1.37231 16 ft 46 kts 62°
2026-05-06 12:51 38.87374 1.37438 15 ft 29 kts 40°
2026-05-06 12:51 38.87522 1.37577 13 ft 9 kts 18°
2026-05-06 12:52 38.87556 1.37558 13 ft 6 kts 312°
2026-05-06 12:52 38.87550 1.37507 13 ft 7 kts 246°
2026-05-06 12:52 38.87516 1.37421 13 ft 13 kts 240°
2026-05-06 12:52 38.87464 1.37303 13 ft 17 kts 240°
2026-05-06 12:53 38.87403 1.37154 13 ft 21 kts 243°
2026-05-06 12:53 38.87332 1.36979 13 ft 16 kts 242°
2026-05-06 12:53 38.87295 1.36879 13 ft 5 kts 260°
2026-05-06 12:53 38.87308 1.36857 13 ft 4 kts 315°
2026-05-06 12:54 38.87331 1.36840 13 ft 1 kts 333°
2026-05-06 12:54 38.87367 1.36818 13 ft 11 kts 334°
2026-05-06 12:54 38.87428 1.36805 13 ft 9 kts 22°
2026-05-06 12:54 38.87466 1.36867 13 ft 11 kts 59°
2026-05-06 12:55 38.87504 1.36940 13 ft 7 kts 38°
2026-05-06 12:55 38.87540 1.36934 13 ft 6 kts 333°
2026-05-06 12:55 38.87559 1.36921 13 ft 0 kts 333°